N39YK KVNY-KFAT

Flight info

Callsign N39YK
Flight time N/A
Altitude 14000
Route CANOG3 GMN CSTRO FRAME
Aircraft BE9L/L-VGDW/C

Departure

Time 2026-04-25 04:15
Airport Van Nuys Airport (KVNY)

Arrival

Time N/A
Airport Fresno Yosemite International Airport (KFAT)
Time Latitude Longitude Altitude Speed Heading
2026-04-25 04:00 34.21869 -118.49614 804 ft 0 kts 184°
2026-04-25 04:09 34.21867 -118.49614 804 ft 2 kts 184°
2026-04-25 04:09 34.21825 -118.49625 804 ft 2 kts 186°
2026-04-25 04:10 34.21824 -118.49625 804 ft 0 kts 186°
2026-04-25 04:10 34.21820 -118.49626 804 ft 3 kts 187°
2026-04-25 04:10 34.21805 -118.49627 804 ft 0 kts 181°
2026-04-25 04:10 34.21785 -118.49624 804 ft 7 kts 156°
2026-04-25 04:11 34.21732 -118.49355 804 ft 23 kts 100°
2026-04-25 04:11 34.21782 -118.49232 804 ft 5 kts 355°
2026-04-25 04:11 34.21822 -118.49235 804 ft 11 kts
2026-04-25 04:12 34.21870 -118.49210 804 ft 0 kts 53°
2026-04-25 04:13 34.21878 -118.49171 804 ft 10 kts 86°
2026-04-25 04:13 34.21870 -118.49126 804 ft 7 kts 131°
2026-04-25 04:13 34.21845 -118.49118 804 ft 5 kts 174°
2026-04-25 04:14 34.21479 -118.49081 804 ft 93 kts 176°
2026-04-25 04:14 34.20663 -118.49007 845 ft 135 kts 175°
2026-04-25 04:14 34.19654 -118.48873 1080 ft 155 kts 175°
2026-04-25 04:14 34.18530 -118.48734 1344 ft 168 kts 175°
2026-04-25 04:15 34.17341 -118.48586 1600 ft 176 kts 175°
2026-04-25 04:15 34.16099 -118.48431 1855 ft 181 kts 175°
2026-04-25 04:15 34.14836 -118.48274 2105 ft 184 kts 175°
2026-04-25 04:15 34.13559 -118.48115 2354 ft 186 kts 175°
2026-04-25 04:16 34.12280 -118.47955 2601 ft 187 kts 175°
2026-04-25 04:16 34.10979 -118.47794 2852 ft 187 kts 175°